[[{"header":{"parameterUnit":"m.s-1","parameterCategory":1,"la1":30.2991,"la2":30.254,"lo1":-89.0895,"lo2":-89.0444,"dy":0.0017,"dx":0.0017,"nx":28,"ny":28,"refTime":"2025-06-03T21:00:00:Z","depth":0,"parameterNumber":2,"parameterNumberName":"U-component_of_WINDS"},"data":[0,0,0,0,0,0,0,0,0,0,0,0,0,0,0,0,0,0,0,0,0,0,0,0,0,0,0,0,0,0,0,0,0,0,0,0,0,0,0,0,0,0,0,0,0,0,0,0,0,0,0,0,0,0,0,0,0,0,-4.8931,-4.8931,0,-4.892,-4.892,-4.892,-4.884,-4.8838,-4.8836,-4.8835,-4.8825,-4.8826,-4.8828,0,0,0,0,0,0,0,0,0,0,0,0,0,-4.8887,-4.8888,-4.8931,-4.8931,-4.8931,-4.892,-4.892,-4.8919,-4.8841,-4.8838,-4.8836,-4.8834,-4.8824,-4.8826,-4.8828,0,0,0,0,0,0,0,0,0,0,0,0,0,-4.8894,-4.8889,-4.8931,-4.889,-4.8886,-4.892,-4.892,-4.8919,-4.8841,-4.8838,-4.8835,-4.8833,-4.8824,-4.8826,-4.8828,-4.8901,0,0,-4.8835,-4.8836,0,0,0,0,0,0,0,0,-4.8894,-4.8896,-4.8896,-4.8893,-4.8889,-4.8878,-4.89,-4.8913,-4.8842,-4.8858,-4.8834,-4.8831,-4.8845,-4.8845,-4.885,-4.89,-4.89,-4.8835,-4.8837,-4.8838,-4.8839,0,0,0,0,0,0,0,-4.8893,-4.8896,-4.8926,-4.8896,-4.8892,-4.8873,-4.8871,-4.8903,-4.8868,-4.8857,-4.8851,-4.8851,-4.8842,-4.8848,-4.8849,-4.89,-4.8835,-4.8837,-4.8839,-4.884,-4.9011,-4.9014,0,0,0,0,0,0,-4.8898,-4.8896,-4.8927,-4.8926,-4.8884,-4.8876,-4.8874,-4.8885,-4.8868,-4.8862,-4.8853,-4.8847,-4.8845,-4.8846,-4.8848,-4.8932,-4.8838,-4.884,-4.8841,-4.9008,-4.9012,-4.9015,0,0,0,0,0,0,-4.8898,-4.8902,-4.8927,-4.891,-4.8911,-4.888,-4.8893,-4.8886,-4.8891,-4.8865,-4.8859,-4.8864,-4.8843,-4.8845,-4.8889,-4.8931,-4.8841,-4.8843,-4.9004,-4.9009,-4.9014,-4.9102,0,0,0,0,0,0,-4.8897,-4.8902,-4.8928,-4.8911,-4.8913,-4.8967,-4.8896,-4.8888,-4.8895,-4.8887,-4.8874,-4.8869,-4.8841,-4.8886,-4.8891,-4.8933,-4.8845,-4.9,-4.9006,-4.9012,-4.9095,-4.9109,-4.9121,0,0,0,0,0,-4.8895,-4.8954,-4.893,-4.8934,-4.8945,-4.8969,-4.8971,-4.8936,-4.8899,-4.8926,-4.8909,-4.8869,-4.8926,-4.8891,-4.8896,-4.8939,-4.8997,-4.9005,-4.9012,-4.9089,-4.9106,-4.912,0,0,0,0,0,0,-4.8977,-4.895,-4.8924,-4.8978,-4.8977,-4.8956,-4.8988,-4.8956,-4.8965,-4.8957,-4.8915,-4.8913,-4.8963,-4.8956,-4.8917,-4.9009,-4.8955,-4.8964,-4.9012,-4.9028,-4.9041,-4.9041,-4.8847,0,0,0,0,0,-4.9001,-4.9023,-4.8999,-4.9049,-4.905,-4.902,-4.9029,-4.9003,-4.9,-4.8999,-4.8986,-4.8985,-4.9003,-4.9015,-4.903,-4.9094,-4.909,-4.9127,-4.914,-4.9151,-4.9158,-4.9192,-4.9208,-4.9039,-4.9039,-4.9038,0,0,-4.9051,-4.904,-4.9056,-4.9065,-4.9061,-4.9085,-4.902,-4.9048,-4.9065,-4.9004,-4.9043,-4.9035,-4.9031,-4.9086,-4.9109,-4.9081,-4.9205,-4.916,-4.9168,-4.917,-4.9201,-4.9217,-4.9232,-4.9043,-4.9043,-4.9042,0,0,-4.9155,-4.9148,-4.9189,-4.9187,-4.9182,-4.9162,-4.9172,-4.9157,-4.9149,-4.9188,-4.9143,-4.9165,-4.9196,-4.9195,-4.9199,-4.9306,-4.927,-4.9313,-4.938,-4.9414,-4.9427,-4.9439,-4.9477,-4.9491,-4.932,-4.9321,-4.9321,0,-4.9218,-4.9251,-4.9215,-4.9246,-4.9252,-4.9198,-4.9241,-4.924,-4.9241,-4.9247,-4.9215,-4.9254,-4.9248,-4.9302,-4.9329,-4.9334,-4.9345,-4.9313,-4.9428,-4.944,-4.945,-4.9486,-4.95,-4.9326,-4.9325,-4.9325,-4.9324,0,-4.9329,-4.9354,-4.9388,-4.939,-4.94,-4.9437,-4.9407,-4.9422,-4.9396,-4.938,-4.9422,-4.9414,-4.9426,-4.9438,-4.9413,-4.9489,-4.9472,-4.9436,-4.9379,-4.9472,-4.9505,-4.9518,-4.9333,-4.9331,-4.933,-4.9329,0,0,-4.9481,-4.9464,-4.9477,-4.9477,-4.9469,-4.9488,-4.9524,-4.9536,-4.9549,-4.9553,-4.9581,-4.9611,-4.9577,-4.9582,-4.9557,-4.9587,-4.9673,-4.9547,-4.9547,-4.957,-4.9757,-4.9784,-4.98,-4.965,-4.9653,-4.9655,-4.9757,0,-4.958,-4.9638,-4.9607,-4.967,-4.9693,-4.9644,-4.9675,-4.9674,-4.9661,-4.9679,-4.9665,-4.9686,-4.9641,-4.9643,-4.9671,-4.9657,-4.971,-4.9649,-4.9677,-4.9678,-4.9678,-4.9817,-4.9845,-4.9942,-4.977,-4.9772,-4.9774,0,-4.9702,-4.971,-4.9775,-4.9764,-4.9773,-4.9801,-4.9811,-4.9829,-4.9828,-4.9816,-4.9823,-4.9792,-4.9827,-4.9774,-4.9822,-4.9782,-4.9792,-4.9787,-4.979,-4.979,-4.973,-4.982,-4.9972,-4.9986,-4.9794,-4.9792,-4.9791,0,-4.9806,-4.9833,-4.9876,-4.9878,-4.9867,-4.9888,-4.9884,-4.988,-4.989,-4.99,-4.9906,-4.992,-4.9927,-4.9939,-4.9913,-4.9876,-4.9965,-4.9909,-4.9957,-4.9958,-4.9976,-4.9975,-5.013,-4.9985,-4.9985,-4.9985,-4.9984,0,-4.9918,-4.996,-4.9922,-4.9948,-4.9994,-4.996,-5.0007,-4.9998,-4.9996,-5.002,-4.9979,-5.0003,-4.9968,-4.9989,-4.9969,-5.0013,-5.0017,-5.0009,-5.0003,-5.0012,-5.0013,-5.0016,-5.0008,-4.9988,-4.9988,-4.9987,-4.9986,0,-5.004,-5.0017,-5.006,-5.0046,-5.0044,-5.0079,-5.0067,-5.0091,-5.0077,-5.0108,-5.0114,-5.0091,-5.0114,-5.009,-5.0111,-5.0098,-5.0156,-5.0141,-5.0156,-5.0151,-5.02,-5.0196,-5.0362,-5.0383,-5.0226,-5.0227,-5.0229,0,-5.0113,-5.0144,-5.0134,-5.0147,-5.0146,-5.0168,-5.0178,-5.0147,-5.016,-5.0162,-5.0187,-5.0206,-5.022,-5.0259,-5.0245,-5.0262,-5.0246,-5.0303,-5.0248,-5.0256,-5.0246,-5.0244,-5.0247,-5.0314,-5.0316,-5.0317,-5.0319,0,-5.0244,-5.0232,-5.0247,-5.026,-5.0274,-5.0283,-5.0288,-5.0302,-5.027,-5.0286,-5.0309,-5.032,-5.0343,-5.0363,-5.0376,-5.0373,-5.0341,-5.0337,-5.0348,-5.0357,-5.0364,-5.036,-5.0186,-5.0332,-5.0331,-5.033,-5.0329,-5.0329,-5.0343,-5.0368,-5.0366,-5.0386,-5.0387,-5.0394,-5.0416,-5.0405,-5.0423,-5.0438,-5.042,-5.0448,-5.0449,-5.0463,-5.0464,-5.0487,-5.0463,-5.048,-5.0484,-5.0488,-5.0495,-5.0362,-5.0489,-5.0489,-5.0489,-5.0488,-5.0488,0,-5.0471,-5.0468,-5.0487,-5.0496,-5.0512,-5.0482,-5.0487,-5.0503,-5.0528,-5.0531,-5.0546,-5.0573,-5.0593,-5.0582,-5.06,-5.062,-5.0606,-5.0626,-5.0623,-5.0623,-5.0516,-5.0504,-5.0637,-5.0637,-5.0637,-5.0637,-5.0637,-5.0637,-5.054,-5.0581,-5.0569,-5.0612,-5.0609,-5.0636,-5.0642,-5.0649,-5.0651,-5.0683,-5.07,-5.0692,-5.069,-5.0707,-5.0725,-5.0721,-5.0729,-5.0754,-5.0745,-5.0645,-5.063,-5.0616,-5.0605,-5.0757,-5.0757,-5.085,-5.0851,-5.0852]},{"header":{"parameterUnit":"m.s-1","parameterCategory":1,"la1":30.2991,"la2":30.254,"lo1":-89.0895,"lo2":-89.0444,"dy":0.0017,"dx":0.0017,"nx":28,"ny":28,"refTime":"2025-06-03T21:00:00:Z","depth":0,"parameterNumber":3,"parameterNumberName":"V-component_of_WINDS"},"data":[0,0,0,0,0,0,0,0,0,0,0,0,0,0,0,0,0,0,0,0,0,0,0,0,0,0,0,0,0,0,0,0,0,0,0,0,0,0,0,0,0,0,0,0,0,0,0,0,0,0,0,0,0,0,0,0,0,0,2.4483,2.4484,0,2.4549,2.455,2.4551,2.4638,2.4639,2.4641,2.4642,2.4704,2.4705,2.4705,0,0,0,0,0,0,0,0,0,0,0,0,0,2.443,2.443,2.4483,2.4484,2.4485,2.4549,2.455,2.4551,2.4638,2.4639,2.4641,2.4643,2.4704,2.4705,2.4705,0,0,0,0,0,0,0,0,0,0,0,0,0,2.447,2.443,2.4483,2.4536,2.4542,2.4549,2.455,2.4551,2.4637,2.4639,2.4642,2.4644,2.4704,2.4705,2.4705,2.4664,0,0,2.4707,2.4707,0,0,0,0,0,0,0,0,2.4467,2.4472,2.4527,2.4532,2.4539,2.4588,2.4554,2.4589,2.4637,2.4601,2.4642,2.4645,2.4664,2.4667,2.4675,2.4667,2.467,2.4707,2.4707,2.4707,2.4707,0,0,0,0,0,0,0,2.4464,2.4469,2.4509,2.4528,2.4535,2.4556,2.4564,2.4561,2.4619,2.4604,2.4611,2.4617,2.4667,2.4674,2.4677,2.4671,2.4707,2.4707,2.4707,2.4707,2.4634,2.4632,0,0,0,0,0,0,2.4454,2.4466,2.4507,2.4511,2.4508,2.4555,2.4564,2.457,2.4619,2.4629,2.4616,2.4621,2.4672,2.4676,2.4679,2.4635,2.4707,2.4707,2.4708,2.4636,2.4633,2.4631,0,0,0,0,0,0,2.4453,2.4457,2.4504,2.4491,2.4498,2.4553,2.4559,2.457,2.4577,2.4628,2.4638,2.4612,2.4674,2.4679,2.4668,2.4638,2.4708,2.4708,2.4639,2.4635,2.4632,2.4545,0,0,0,0,0,0,2.4451,2.4456,2.4441,2.449,2.4499,2.4492,2.4557,2.4569,2.4578,2.4586,2.4628,2.4637,2.4676,2.4667,2.4668,2.464,2.4708,2.4642,2.4637,2.4633,2.4551,2.4539,2.4529,0,0,0,0,0,2.4449,2.4413,2.444,2.4445,2.4482,2.4491,2.4496,2.4543,2.4576,2.4561,2.4594,2.4635,2.4642,2.4665,2.4668,2.4639,2.4644,2.4638,2.4634,2.4556,2.4542,2.453,0,0,0,0,0,0,2.4357,2.442,2.4451,2.443,2.4455,2.4505,2.4488,2.4527,2.4541,2.4547,2.4605,2.4614,2.4595,2.4617,2.4641,2.4603,2.4649,2.4644,2.4589,2.4576,2.4565,2.4559,2.4709,0,0,0,0,0,2.4335,2.4338,2.4393,2.4369,2.438,2.4432,2.4437,2.4473,2.4499,2.4509,2.4542,2.4565,2.4572,2.4576,2.4585,2.4555,2.4565,2.4537,2.4526,2.4517,2.4512,2.4497,2.4485,2.4615,2.4615,2.4615,0,0,2.4288,2.4323,2.4321,2.4352,2.4375,2.4375,2.444,2.4438,2.4438,2.4509,2.4501,2.4525,2.4555,2.4534,2.4527,2.4551,2.4479,2.4511,2.4503,2.4503,2.4491,2.4479,2.4468,2.4611,2.4612,2.4612,0,0,2.4204,2.4231,2.4215,2.4237,2.4272,2.4308,2.4304,2.4349,2.4369,2.4362,2.4415,2.4417,2.4429,2.4448,2.4459,2.4385,2.4423,2.4386,2.4329,2.4314,2.4304,2.4295,2.4268,2.4257,2.4381,2.4381,2.4381,0,2.414,2.4145,2.4201,2.4196,2.4208,2.4274,2.4258,2.4276,2.4312,2.4318,2.4345,2.4363,2.4387,2.4372,2.4354,2.4362,2.4358,2.438,2.4302,2.4293,2.4286,2.426,2.425,2.4376,2.4377,2.4377,2.4378,0,2.4066,2.4068,2.4051,2.4086,2.4096,2.4085,2.4138,2.4141,2.4176,2.4208,2.4201,2.4234,2.4251,2.4251,2.4284,2.4241,2.4255,2.4291,2.4339,2.4268,2.4245,2.4235,2.4369,2.4371,2.4372,2.4374,0,0,2.3922,2.399,2.3983,2.4,2.4045,2.4047,2.404,2.406,2.4061,2.4084,2.4078,2.4088,2.4123,2.4135,2.4172,2.4159,2.4098,2.4198,2.4199,2.4176,2.4051,2.4022,2.401,2.4125,2.4123,2.4122,2.4048,0,2.3844,2.3836,2.3887,2.3865,2.3868,2.3933,2.3927,2.3953,2.3983,2.399,2.4023,2.4029,2.4074,2.4083,2.4074,2.4107,2.4073,2.4113,2.4118,2.4117,2.4106,2.3998,2.3967,2.3896,2.404,2.4038,2.4037,0,2.3752,2.3772,2.3751,2.3799,2.3802,2.3795,2.3818,2.3824,2.3855,2.3878,2.3894,2.3937,2.3932,2.3979,2.3973,2.3999,2.4005,2.4022,2.402,2.402,2.4071,2.3994,2.3875,2.3863,2.4024,2.4025,2.4026,0,2.3648,2.367,2.3661,2.3674,2.3729,2.3723,2.3746,2.378,2.3789,2.3808,2.3815,2.3833,2.3842,2.3854,2.3901,2.3931,2.3888,2.394,2.3906,2.3905,2.3892,2.3891,2.377,2.3898,2.3898,2.3899,2.3899,0,2.3554,2.3538,2.3615,2.3608,2.3593,2.3652,2.3634,2.3663,2.3693,2.3693,2.3751,2.3749,2.3811,2.3816,2.3853,2.3841,2.3845,2.3863,2.3872,2.3857,2.3854,2.3859,2.3864,2.3896,2.3897,2.3897,2.3898,0,2.3434,2.3485,2.3479,2.3533,2.3547,2.3532,2.3579,2.3575,2.361,2.3609,2.3613,2.3667,2.3676,2.3725,2.3745,2.3769,2.3744,2.3765,2.3734,2.374,2.3703,2.3705,2.3579,2.3565,2.3703,2.3702,2.3701,0,2.337,2.336,2.3414,2.342,2.344,2.3447,2.3458,2.3516,2.3524,2.3561,2.3552,2.3567,2.3581,2.3592,2.3633,2.3648,2.3668,2.3623,2.3671,2.3655,2.3666,2.3665,2.3664,2.3612,2.361,2.3608,2.3607,0,2.3251,2.3277,2.3291,2.3314,2.3325,2.3345,2.3369,2.3369,2.3434,2.344,2.3451,2.3463,2.3485,2.3498,2.3521,2.3543,2.3585,2.3593,2.3585,2.3568,2.355,2.3558,2.3704,2.3594,2.3596,2.3597,2.3597,2.3598,2.3156,2.315,2.3188,2.3202,2.3227,2.3248,2.3247,2.3284,2.3295,2.3318,2.3352,2.3359,2.3392,2.3428,2.3447,2.3452,2.3476,2.3466,2.3463,2.3459,2.345,2.3551,2.3456,2.3457,2.3457,2.3457,2.3458,0,2.3039,2.3068,2.308,2.3112,2.3123,2.3165,2.3194,2.3199,2.3205,2.3233,2.3248,2.3261,2.3274,2.3317,2.3335,2.3331,2.335,2.3333,2.3333,2.3337,2.3428,2.3432,2.3317,2.3317,2.3317,2.3317,2.3317,2.3317,2.2979,2.2972,2.3003,2.3008,2.3037,2.3046,2.3058,2.3078,2.3101,2.3114,2.3126,2.3155,2.3189,2.321,2.3224,2.3237,2.3239,2.3215,2.3233,2.3317,2.3331,2.3343,2.3347,2.3216,2.3216,2.3142,2.3141,2.3141]}]]